Regional Weather Roundup
Issued by NWS

Home | Current Version | Previous Version | Graphics & Text | Print | Product List | Glossary On
Versions: 1 2 3 4 5 6 7 8 9 10 11 12 13 14 15 16 17 18 19 20 21 22 23 24 25 26 27 28 29 30 31 32 33 34 35 36 37 38 39 40 41 42 43 44 45 46 47 48 49
000
ASUS45 KCYS 272310
RWRWY

WYOMING REGIONAL WEATHER ROUNDUP
NATIONAL WEATHER SERVICE CHEYENNE WY
400 PM MST FRI FEB 27 2015

NOTE:  "FAIR" INDICATES FEW OR NO CLOUDS BELOW 12,000 FEET
WITH NO SIGNIFICANT WEATHER AND/OR OBSTRUCTIONS TO VISIBILITY.

WYZ001-280000-
YELLOWSTONE NATIONAL PARK

CITY           SKY/WX    TMP DP  RH WIND       PRES   REMARKS
LK YELLOWSTONE   N/A     20  11  68 VRB5      29.69F WCI  13
W YELLOWSTONE  NOT AVBL

$$
WYZ002>013-054>058-071-098>099-280000-
NORTHERN WYOMING

CITY           SKY/WX    TMP DP  RH WIND       PRES   REMARKS
JACKSON        LGT SNOW  21  18  86 VRB6      29.71F WCI  14
CODY           PTSUNNY   21  10  63 CALM      29.82S
GREYBULL       FAIR      30   7  37 CALM      29.87S
WORLAND        FAIR      27  10  49 CALM      29.85S
SHERIDAN       FAIR      17   5  59 CALM      29.90S
BUFFALO        FAIR      21   5  50 CALM      29.83R
GILLETTE       FAIR      23  10  57 S16       29.86F WCI  10
HULETT         FAIR      23  10  58 SW14      29.91S WCI  11
NEWCASTLE      FAIR      23   9  54 SE17      29.93F WCI   9

$$
WYZ014>020-022>026-101>103-280000-
CENTRAL WYOMING

CITY           SKY/WX    TMP DP  RH WIND       PRES   REMARKS
BIG PINEY      CLOUDY    23  12  62 CALM      29.72F
PINEDALE       CLOUDY    19  12  73 N5        29.74S HAZE    WCI  13
DUBOIS         CLOUDY    14   9  79 S12       29.68R WCI   0
LANDER         FAIR      13   4  67 CALM      29.78F
RIVERTON       FAIR      16   6  65 N3        29.80F
CASPER         FAIR      27   7  42 SW10      29.79F WCI  17
DOUGLAS        FAIR      24  11  57 SE15      29.84F WCI  11

$$
WYZ021-027>030-104>119-280000-
SOUTHERN WYOMING

CITY           SKY/WX    TMP DP  RH WIND       PRES   REMARKS
EVANSTON       LGT SNOW  28  22  78 W7        29.68F WCI  21
KEMMERER       MOCLDY    28  19  69 S3        29.69S
FORT BRIDGER   MOCLDY    31  19  61 SE7       29.72F WCI  24
ROCK SPRINGS   FAIR      30  12  47 S8        29.71F WCI  22
DIXON          FAIR      33   9  36 CALM      29.76F
RAWLINS        FAIR      30   6  36 W13       29.73F WCI  20
SARATOGA       CLOUDY    30   9  40 W6        29.74S WCI  24
LARAMIE        FAIR      19   8  62 S10       29.72S WCI   7
CHEYENNE       LGT SNOW  12   5  73 S17       29.84F WCI  -5
TORRINGTON     PTSUNNY   23   7  50 S21G29    29.93F WCI   8
PINE BLUFFS    CLOUDY    18   9  68 S16G23    29.93F WCI   3

$$


USA.gov is the U.S. government's official web portal to all federal, state and local government web resources and services.